Weather in Shiraz

Iran     29°37′03″N   52°30′17″E
temp.,
°C
wind,
m/s
gust,
m/s
humid.,
%
clouds,
%
prec.,
mm/h
press.,
hPa
HPBL,
m
24 july, sat
sat2401:30+26s22382 0.0 100229
04:30+26nw113615 0.0 100211
07:30+27nnw222510 0.0 100320
10:30+30ese22205 0.0 1003752
13:30+34ssw111646 0.0 10012298
16:30+35w7615100 0.0 10002657
19:30+32sw452076 0.0 10021257
22:30+30wsw222243 0.0 1004158
25 july, sun
sun2501:30+27s22365 0.0 100547
04:30+25ene11430 0.0 100515
07:30+26n22360 0.0 100661
10:30+30ne25230 0.0 10061241
13:30+35ene6990 0.0 10043911
16:30+36ene6975 0.0 10034399
19:30+34ene71091 0.0 1003462
22:30+31ne510110 0.0 1005222
26 july, mon
mon2601:30+28nne34150 0.0 100762
04:30+25nnw33170 0.0 100833
07:30+25nne22150 0.0 100939
10:30+31ene1115120 0.0 10082509
13:30+34ene1314100 0.0 10053190
16:30+34ene1314830 0.0 10043930
19:30+32ene1114110 0.0 10051106
22:30+29ne916130 0.0 1007529
27 july, tue
tue2701:30+28ne716160 0.0 1007516
04:30+26ne46184 0.0 100695
07:30+25ne48215 0.0 1008321
10:30+30ene1216165 0.0 10062638
13:30+33ene1213125 0.0 10043509
16:30+34ene11121281 0.0 10014015
19:30+32ene8111457 0.0 10021073
22:30+29ne915155 0.0 1004555
28 july, wed
wed2801:30+26nne34201 0.0 100451
04:30+25nne332211 0.0 100331
07:30+25ne412205 0.0 1004509
10:30+30ene1116143 0.0 10032334
13:30+33ene111395 0.0 10003164
16:30+35ene91075 0.0 9983845
19:30+33e5895 0.0 999243
22:30+29n44115 0.0 100343